Date String (YYYY-MM-DD hh:mm:ss) UTC,Instrument flags,absolute air pressure of the measurement (hPa),sample flow rate (lpm),inlet stack bypass flow (lpm),air temperature of the measurement (°C),ambient temperature measured by the external sensor (°C),aerosol sample conditioner tube jacket temperature (°C),OPC LED temperature (°C),internal box temperature (°C),relative humidity of the measurement (%),span deviation,mass concentration of particles derived from Lorenz-Mie calculation of OPC scattering (μg/m³),mass concentration of particles derived from Lorenz-Mie calculation of OPC scattering (μg/m³),mass concentration of particles derived from Lorenz-Mie calculation of OPC scattering (μg/m³)
DateTimeUTC,F1_M11,P_M11,Q1_M11,Q2_M11,T1_M11,T2_M11,T3_M11,T4_M11,T5_M11,U1_M11,ZSPAN_M11,X2_M11,X0_M11,X1_M11
2024-06-17 02:00:00,SystemResetWarning,0821.3,5.01,000.00,028.5,026.7,000.0,037.1,030.0,032.7,0000.0,0006.65,0021.65,0004.90
2024-06-17 02:01:00,SystemResetWarning,0821.3,5.00,000.00,028.6,027.2,000.0,037.0,030.3,032.6,0000.0,0006.66,0020.69,0004.90
2024-06-17 02:02:00,SystemResetWarning,0821.5,5.00,000.00,028.7,027.6,000.0,037.0,030.5,032.5,0000.0,0006.69,0020.43,0004.90
2024-06-17 02:03:00,SystemResetWarning,0821.4,5.00,000.00,028.8,028.0,000.0,037.0,030.6,032.3,0000.0,0006.75,0021.22,0004.89
2024-06-17 02:04:00,SystemResetWarning,0822.0,4.99,000.00,028.9,028.2,000.0,037.1,030.8,032.2,0000.0,0006.76,0020.62,0004.89
2024-06-17 02:05:00,SystemResetWarning,0822.0,4.99,000.00,029.0,028.5,000.0,037.1,030.9,032.1,0000.0,0006.73,0020.75,0004.88
2024-06-17 02:06:00,SystemResetWarning,0821.6,5.00,000.00,029.1,028.7,000.0,037.1,031.0,032.0,0000.0,0006.65,0020.98,0004.86
2024-06-17 02:07:00,SystemResetWarning,0821.5,5.00,000.00,029.2,028.9,000.0,037.2,031.2,031.9,0000.0,0006.57,0020.93,0004.85
2024-06-17 02:08:00,SystemResetWarning,0821.6,5.00,000.00,029.3,029.0,000.0,037.2,031.2,031.8,0000.0,0006.59,0021.94,0004.85
2024-06-17 02:09:00,SystemResetWarning,0821.6,4.99,000.00,029.3,027.8,000.0,037.3,030.6,031.8,0000.0,0006.60,0025.12,0004.84
2024-06-17 02:10:00,SystemResetWarning,0821.9,5.01,000.00,028.8,025.6,000.0,037.4,029.5,032.6,0000.0,0006.64,0027.70,0004.83
2024-06-17 02:11:00,SystemResetWarning,0822.0,5.01,000.00,028.5,025.2,000.0,037.3,029.3,033.2,0000.0,0006.67,0027.87,0004.83
2024-06-17 02:12:00,SystemResetWarning,0821.7,5.01,000.00,028.5,025.7,000.0,037.2,029.5,033.5,0000.0,0006.69,0030.96,0004.80
2024-06-17 02:13:00,SystemResetWarning,0821.6,4.99,000.00,028.5,026.2,000.0,037.1,029.8,033.4,0000.0,0006.69,0032.28,0004.80
2024-06-17 02:14:00,SystemResetWarning,0821.6,5.00,000.00,028.5,026.7,000.0,037.1,030.1,033.3,0000.0,0006.67,0031.49,0004.80
2024-06-17 02:15:00,SystemResetWarning,0821.6,5.01,000.00,028.6,027.2,000.0,037.1,030.3,033.2,0000.0,0006.66,0031.98,0004.80
2024-06-17 02:16:00,SystemResetWarning,0821.6,4.99,000.00,028.7,027.6,000.0,037.1,030.5,033.1,0000.0,0006.62,0032.56,0004.79
2024-06-17 02:17:00,SystemResetWarning,0821.7,5.00,000.00,028.8,028.0,000.0,037.1,030.7,033.0,0000.0,0006.62,0032.42,0004.80
2024-06-17 02:18:00,SystemResetWarning,0821.7,5.01,000.00,028.9,028.2,000.0,037.1,030.8,032.6,0000.0,0006.71,0031.70,0004.82
2024-06-17 02:19:00,SystemResetWarning,0821.7,5.00,000.00,029.0,028.5,000.0,037.1,030.9,032.2,0000.0,0006.72,0031.24,0004.82
2024-06-17 02:20:00,SystemResetWarning,0821.8,5.00,000.00,029.1,028.7,000.0,037.2,031.0,032.0,0000.0,0006.70,0029.67,0004.81
2024-06-17 02:21:00,SystemResetWarning,0821.8,5.00,000.00,029.2,028.9,000.0,037.2,031.2,031.8,0000.0,0006.62,0026.89,0004.81
2024-06-17 02:22:00,SystemResetWarning,0821.8,4.99,000.00,029.3,028.4,000.0,037.3,030.9,031.6,0000.0,0006.62,0026.36,0004.79
2024-06-17 02:23:00,SystemResetWarning,0821.7,4.99,000.00,029.0,026.1,000.0,037.3,029.8,032.1,0000.0,0006.62,0025.16,0004.78
2024-06-17 02:24:00,SystemResetWarning,0821.7,5.02,000.00,028.6,025.1,000.0,037.3,029.3,032.8,0000.0,0006.56,0024.27,0004.77
2024-06-17 02:25:00,SystemResetWarning,0821.8,5.00,000.00,028.4,025.5,000.0,037.3,029.4,033.1,0000.0,0006.55,0024.53,0004.77
2024-06-17 02:26:00,SystemResetWarning,0821.8,5.00,000.00,028.4,026.0,000.0,037.1,029.6,033.2,0000.0,0006.56,0024.94,0004.77
2024-06-17 02:27:00,SystemResetWarning,0821.8,4.99,000.00,028.5,026.5,000.0,037.1,029.9,033.1,0000.0,0006.59,0023.52,0004.77
2024-06-17 02:28:00,SystemResetWarning,0821.9,5.00,000.00,028.5,027.0,000.0,037.0,030.2,033.0,0000.0,0006.61,0024.22,0004.75
2024-06-17 02:29:00,SystemResetWarning,0821.9,5.00,000.00,028.6,027.4,000.0,037.0,030.4,032.7,0000.0,0006.58,0025.68,0004.74
2024-06-17 02:30:00,SystemResetWarning,0821.9,5.00,000.00,028.7,027.8,000.0,037.0,030.5,032.7,0000.0,0006.52,0026.87,0004.72
2024-06-17 02:31:00,SystemResetWarning,0822.0,5.00,000.00,028.8,028.1,000.0,037.0,030.7,032.6,0000.0,0006.49,0026.48,0004.71
2024-06-17 02:32:00,SystemResetWarning,0822.0,5.00,000.00,028.9,028.4,000.0,037.1,030.8,032.6,0000.0,0006.52,0027.72,0004.72
2024-06-17 02:33:00,SystemResetWarning,0822.0,4.99,000.00,029.0,028.6,000.0,037.1,031.0,032.3,0000.0,0006.51,0028.63,0004.73
2024-06-17 02:34:00,SystemResetWarning,0822.0,5.00,000.00,029.1,028.7,000.0,037.1,031.1,032.0,0000.0,0006.51,0027.94,0004.74
2024-06-17 02:35:00,SystemResetWarning,0821.9,5.00,000.00,029.2,028.9,000.0,037.2,031.2,031.8,0000.0,0006.54,0028.34,0004.74
2024-06-17 02:36:00,SystemResetWarning,0822.0,5.00,000.00,029.3,029.1,000.0,037.3,031.3,031.6,0000.0,0006.55,0027.43,0004.74
2024-06-17 02:37:00,SystemResetWarning,0821.9,5.00,000.00,029.3,028.5,000.0,037.3,031.0,031.6,0000.0,0006.48,0027.44,0004.73
2024-06-17 02:38:00,SystemResetWarning,0821.8,5.01,000.00,029.0,026.2,000.0,037.4,029.8,032.1,0000.0,0006.40,0028.68,0004.73
2024-06-17 02:39:00,SystemResetWarning,0821.8,5.01,000.00,028.6,025.2,000.0,037.4,029.3,032.7,0000.0,0006.33,0028.21,0004.73
2024-06-17 02:40:00,SystemResetWarning,0821.8,5.01,000.00,028.5,025.5,000.0,037.3,029.4,033.1,0000.0,0006.31,0026.71,0004.73
2024-06-17 02:41:00,SystemResetWarning,0821.9,5.01,000.00,028.5,026.0,000.0,037.2,029.7,033.2,0000.0,0006.33,0025.18,0004.73
2024-06-17 02:42:00,SystemResetWarning,0821.9,4.99,000.00,028.5,026.5,000.0,037.1,030.0,033.0,0000.0,0006.30,0024.90,0004.72
2024-06-17 02:43:00,SystemResetWarning,0821.9,5.01,000.00,028.6,027.0,000.0,037.1,030.2,032.8,0000.0,0006.33,0024.44,0004.71
2024-06-17 02:44:00,SystemResetWarning,0822.0,5.00,000.00,028.7,027.4,000.0,037.1,030.4,032.6,0000.0,0006.34,0023.48,0004.69
2024-06-17 02:45:00,SystemResetWarning,0822.0,5.00,000.00,028.7,027.8,000.0,037.1,030.6,032.4,0000.0,0006.30,0024.11,0004.68
2024-06-17 02:46:00,SystemResetWarning,0821.9,5.00,000.00,028.8,028.1,000.0,037.1,030.7,032.2,0000.0,0006.24,0024.04,0004.66
2024-06-17 02:47:00,SystemResetWarning,0822.0,5.00,000.00,028.9,028.4,000.0,037.1,030.9,032.1,0000.0,0006.26,0024.62,0004.65
2024-06-17 02:48:00,SystemResetWarning,0822.0,5.00,000.00,029.0,028.6,000.0,037.1,031.0,031.9,0000.0,0006.27,0024.20,0004.64
2024-06-17 02:49:00,SystemResetWarning,0822.0,5.00,000.00,029.1,028.8,000.0,037.2,031.1,031.6,0000.0,0006.27,0022.69,0004.63
2024-06-17 02:50:00,SystemResetWarning,0821.9,5.00,000.00,029.2,028.9,000.0,037.2,031.2,031.3,0000.0,0006.34,0022.98,0004.63
2024-06-17 02:51:00,SystemResetWarning,0822.0,5.00,000.00,029.3,029.1,000.0,037.3,031.3,031.1,0000.0,0006.33,0022.92,0004.63
2024-06-17 02:52:00,SystemResetWarning,0821.9,5.00,000.00,029.4,029.1,000.0,037.3,031.3,031.0,0000.0,0006.36,0022.34,0004.62
2024-06-17 02:53:00,SystemResetWarning,0822.0,4.98,000.00,029.3,027.3,000.0,037.4,030.4,031.2,0000.0,0006.40,0022.53,0004.63
2024-06-17 02:54:00,SystemResetWarning,0822.0,5.01,000.00,028.9,026.2,000.0,037.5,029.9,031.8,0000.0,0006.37,0023.68,0004.62
2024-06-17 02:55:00,SystemResetWarning,0822.0,5.01,000.00,028.8,026.5,000.0,037.4,030.0,032.0,0000.0,0006.36,0023.50,0004.62
2024-06-17 02:56:00,SystemResetWarning,0821.9,4.99,000.00,028.9,026.9,000.0,037.3,030.3,031.9,0000.0,0006.30,0023.09,0004.62
2024-06-17 02:57:00,SystemResetWarning,0822.0,5.00,000.00,028.9,027.3,000.0,037.3,030.5,031.8,0000.0,0006.28,0023.62,0004.62
2024-06-17 02:58:00,SystemResetWarning,0822.0,5.00,000.00,029.0,027.7,000.0,037.3,030.7,031.7,0000.0,0006.29,0023.82,0004.61
2024-06-17 02:59:00,SystemResetWarning,0822.1,5.00,000.00,029.1,028.1,000.0,037.3,030.8,031.6,0000.0,0006.30,0023.22,0004.60
